TimeEST,TemperatureF,Dew PointF,Humidity,Sea Level PressureIn,VisibilityMPH,Wind Direction,Wind SpeedMPH,Gust SpeedMPH,PrecipitationIn,Events,Conditions,WindDirDegrees,DateUTC
12:53 AM,39.9,32.0,73,29.87,10.0,SSE,12.7,-,N/A,,Clear,160,2013-02-08 05:53:00
1:53 AM,39.9,33.1,77,29.85,10.0,SSE,9.2,-,N/A,,Clear,160,2013-02-08 06:53:00
2:53 AM,39.0,33.1,79,29.83,10.0,SSE,11.5,-,N/A,,Clear,160,2013-02-08 07:53:00
3:53 AM,39.0,34.0,82,29.82,10.0,South,8.1,-,N/A,,Scattered Clouds,170,2013-02-08 08:53:00
4:51 AM,39.2,33.8,81,29.79,10.0,South,9.2,-,N/A,,Overcast,170,2013-02-08 09:51:00
4:53 AM,39.9,34.0,79,29.80,10.0,South,8.1,-,N/A,,Overcast,170,2013-02-08 09:53:00
5:13 AM,39.2,33.8,81,29.78,10.0,South,10.4,-,N/A,,Overcast,170,2013-02-08 10:13:00
5:53 AM,39.9,34.0,79,29.79,10.0,South,9.2,-,N/A,,Overcast,190,2013-02-08 10:53:00
6:53 AM,37.9,35.1,89,29.81,6.0,SW,4.6,-,0.03,Rain,Light Rain,220,2013-02-08 11:53:00
7:53 AM,39.9,37.9,93,29.83,6.0,SW,6.9,-,0.06,Rain,Light Rain,220,2013-02-08 12:53:00
8:12 AM,39.2,37.4,93,29.81,5.0,WSW,4.6,-,0.01,Rain,Light Rain,250,2013-02-08 13:12:00
8:53 AM,37.9,36.0,93,29.86,10.0,West,11.5,-,0.01,,Overcast,280,2013-02-08 13:53:00
9:24 AM,37.4,33.8,87,29.86,5.0,WNW,17.3,23.0,N/A,,Overcast,290,2013-02-08 14:24:00
9:34 AM,37.4,33.8,87,29.86,2.5,WNW,11.5,-,N/A,,Overcast,290,2013-02-08 14:34:00
9:53 AM,36.0,33.1,89,29.88,4.0,WNW,11.5,23.0,N/A,,Overcast,290,2013-02-08 14:53:00
10:13 AM,35.6,32.0,87,29.88,4.0,WNW,15.0,25.3,0.01,,Overcast,290,2013-02-08 15:13:00
10:53 AM,35.1,32.0,89,29.92,3.0,West,11.5,20.7,0.01,,Overcast,280,2013-02-08 15:53:00
11:53 AM,34.0,28.0,79,29.96,10.0,WNW,21.9,27.6,N/A,,Overcast,290,2013-02-08 16:53:00
12:53 PM,33.1,26.1,75,29.97,10.0,WNW,19.6,29.9,N/A,,Overcast,300,2013-02-08 17:53:00
1:53 PM,32.0,26.1,79,30.00,10.0,WNW,13.8,24.2,N/A,,Overcast,290,2013-02-08 18:53:00
2:53 PM,32.0,26.1,79,30.03,10.0,WNW,13.8,20.7,N/A,,Overcast,300,2013-02-08 19:53:00
3:53 PM,30.9,25.0,79,30.07,10.0,WNW,16.1,-,N/A,,Overcast,290,2013-02-08 20:53:00
4:53 PM,30.9,24.1,76,30.09,10.0,NW,11.5,-,N/A,,Overcast,310,2013-02-08 21:53:00
5:53 PM,30.0,23.0,75,30.13,10.0,NW,13.8,-,N/A,,Overcast,320,2013-02-08 22:53:00
6:53 PM,28.9,21.9,75,30.17,10.0,NW,13.8,19.6,N/A,,Overcast,310,2013-02-08 23:53:00
7:53 PM,28.0,19.9,72,30.21,10.0,NNW,19.6,24.2,N/A,,Overcast,330,2013-02-09 00:53:00
8:53 PM,28.0,19.0,69,30.25,10.0,NNW,15.0,-,N/A,,Overcast,330,2013-02-09 01:53:00
9:53 PM,28.0,19.9,72,30.26,10.0,NW,10.4,-,N/A,,Overcast,320,2013-02-09 02:53:00
10:53 PM,27.0,19.9,75,30.27,10.0,NW,12.7,-,N/A,,Overcast,310,2013-02-09 03:53:00
11:53 PM,27.0,19.9,75,30.28,10.0,NW,12.7,-,N/A,,Overcast,310,2013-02-09 04:53:00